Melbourne Airport, Australia

9:13 AM AEDT on October 22, 2017 (GMT +1100)
Melbourne International

Weather History for YMML - March, 2013

Change the Weather History Date:

Sunday, March 31, 2013

  Actual Average Record
Temperature  
Mean Temperature 58 °F -  
Max Temperature 63 °F 66 °F 88 °F (2014)
Min Temperature 51 °F 48 °F 44 °F (2016)
Degree Days  
Heating Degree Days 7    
Growing Degree Days 8 (Base 50)    
Moisture  
Dew Point 53 °F    
Average Humidity 79    
Maximum Humidity 94    
Minimum Humidity 57    
Precipitation  
Precipitation 0.08 in 0.06 in - ()
Sea Level Pressure  
Sea Level Pressure 29.96 in    
Wind  
Wind Speed 8 mph ()    
Max Wind Speed 17 mph    
Max Gust Speed -    
Visibility 6.2 miles    
Events Rain    
Averages and records for this station are not official NWS values.
T = Trace of Precipitation, MM = Missing Value Source: Averaged Metar Reports

Daily Weather History Graph

Daily Weather History Graph

Search for Another Location

Airport or City:

Trip Planner

Search our weather history database for the weather conditions in past years. The results will help you decide how hot, cold, wet, or windy it might be!

Date:

Astronomy

Mar. 31, 2013 Rise Set
Actual Time 7:33 AM AEDT 7:15 PM AEDT
Civil Twilight 7:07 AM AEDT 7:41 PM AEDT
Nautical Twilight 6:36 AM AEDT 8:12 PM AEDT
Astronomical Twilight 6:06 AM AEDT 8:42 PM AEDT
Moon 9:53 PM AEDT (3/31) 11:32 AM AEDT (3/31)
Length of Visible Light 12h 34m
Length of Day
11h 42m
Waning Gibbous, 83% of the Moon is Illuminated
Mar 31
Waning Gibbous
Apr 3
Last Quarter
Apr 10
New
Apr 18
First Quarter
Apr 26
Full

Hourly Weather History & Observations

Time (AEDT) Temp. Dew Point Humidity Pressure Visibility Wind Dir Wind Speed Gust Speed Precip Events Conditions
12:00 AM 63 °F 54 °F 65% 29.88 in 9 mi WNW 6.9 mph - -   Overcast
12:00 AM 62.6 °F 53.6 °F 72% 29.89 in 6.2 mi WNW 6.9 mph - N/A   Mostly Cloudy
12:30 AM 60.8 °F 55.4 °F 82% 29.89 in 6.2 mi WNW 8.1 mph - N/A Rain Light Rain Showers
1:00 AM 60.8 °F 57.2 °F 88% 29.86 in 6.2 mi Calm Calm - N/A   Mostly Cloudy
1:30 AM 60.8 °F 57.2 °F 88% 29.89 in 6.2 mi NW 6.9 mph - N/A   Mostly Cloudy
1:53 AM 59.0 °F 57.2 °F 94% 29.89 in 4.3 mi SSW 11.5 mph - N/A Rain Light Rain Showers
2:00 AM 59 °F 57 °F 92% 29.89 in - WSW 6.9 mph - -  
2:00 AM 59.0 °F 57.2 °F 94% 29.89 in 3.1 mi WSW 6.9 mph - N/A Rain Light Rain Showers
2:22 AM 59.0 °F 57.2 °F 94% 29.89 in 2.5 mi West 12.7 mph - N/A Rain Light Rain Showers
2:30 AM 59.0 °F 57.2 °F 94% 29.89 in 2.5 mi WSW 10.4 mph - N/A Rain Light Rain Showers
3:00 AM 59 °F 58 °F 94% 29.90 in 3 mi West 6.9 mph - - Rain Light Drizzle
3:00 AM 59.0 °F 57.2 °F 94% 29.89 in 3.1 mi West 6.9 mph - N/A   Light Drizzle
3:25 AM 59.0 °F 55.4 °F 88% 29.89 in 4.3 mi WSW 15.0 mph - N/A   Mostly Cloudy
3:30 AM 59.0 °F 53.6 °F 82% 29.89 in 5.6 mi WSW 15.0 mph - N/A   Mostly Cloudy
4:00 AM 57.2 °F 51.8 °F 82% 29.89 in 6.2 mi West 15.0 mph - N/A   Partly Cloudy
4:30 AM 57.2 °F 51.8 °F 82% 29.89 in 6.2 mi West 9.2 mph - N/A   Scattered Clouds
5:00 AM 56 °F 50 °F 75% 29.88 in - NW 8.1 mph - -  
5:00 AM 57.2 °F 50.0 °F 77% 29.89 in 6.2 mi NW 8.1 mph - N/A   Scattered Clouds
5:30 AM 57.2 °F 50.0 °F 77% 29.89 in 6.2 mi NW 10.4 mph - N/A   Partly Cloudy
6:00 AM 54 °F 49 °F 79% 29.88 in 25 mi NW 9.2 mph - -   Partly Cloudy
6:00 AM 53.6 °F 50.0 °F 88% 29.89 in 6.2 mi NW 9.2 mph - N/A   Partly Cloudy
6:30 AM 53.6 °F 48.2 °F 82% 29.89 in 6.2 mi NW 8.1 mph - N/A   Partly Cloudy
7:00 AM 53.6 °F 48.2 °F 82% 29.89 in 6.2 mi NW 8.1 mph - N/A   Partly Cloudy
7:30 AM 55.4 °F 48.2 °F 77% 29.92 in 6.2 mi WNW 9.2 mph - N/A   Mostly Cloudy
8:00 AM 55 °F 49 °F 76% 29.92 in - WNW 10.4 mph - -  
8:00 AM 55.4 °F 50.0 °F 82% 29.92 in 6.2 mi WNW 10.4 mph - N/A   Mostly Cloudy
8:30 AM 57.2 °F 51.8 °F 82% 29.92 in 6.2 mi West 10.4 mph - N/A   Mostly Cloudy
9:00 AM 57 °F 52 °F 76% 29.94 in 19 mi West 11.5 mph - -   Mostly Cloudy
9:00 AM 57.2 °F 51.8 °F 82% 29.95 in 6.2 mi West 11.5 mph - N/A   Mostly Cloudy
9:30 AM 59.0 °F 53.6 °F 82% 29.95 in 6.2 mi WSW 11.5 mph - N/A   Mostly Cloudy
10:00 AM 60.8 °F 53.6 °F 77% 29.95 in 6.2 mi WNW 11.5 mph - N/A   Mostly Cloudy
10:30 AM 60.8 °F 53.6 °F 77% 29.95 in 6.2 mi SW 11.5 mph - N/A   Mostly Cloudy
11:00 AM 62 °F 52 °F 62% 29.97 in - SW 8.1 mph - -  
11:00 AM 62.6 °F 51.8 °F 68% 29.98 in 6.2 mi SW 8.1 mph - N/A   Mostly Cloudy
11:22 AM 60.8 °F 53.6 °F 77% 29.98 in 3.1 mi SW 10.4 mph - N/A Rain Light Rain Showers
11:30 AM 60.8 °F 55.4 °F 82% 29.98 in 6.2 mi South 11.5 mph - N/A   Mostly Cloudy
11:47 AM 60.8 °F 53.6 °F 77% 29.98 in 3.1 mi South 6.9 mph - N/A Rain Light Rain Showers
11:52 AM 59.0 °F 55.4 °F 88% 29.98 in 1.7 mi SW 12.7 mph - N/A Rain Rain Showers
12:00 PM 58 °F 56 °F 90% 29.98 in 16 mi SW 10.4 mph - - Rain Heavy Rain Showers
12:00 PM 59.0 °F 55.4 °F 88% 29.98 in 5.6 mi SW 10.4 mph - N/A Rain Light Rain Showers
12:30 PM 60.8 °F 53.6 °F 77% 29.98 in 5.6 mi SSW 4.6 mph - N/A   Mostly Cloudy
12:53 PM 59.0 °F 55.4 °F 88% 29.98 in 3.7 mi South 17.3 mph - N/A Rain Light Rain Showers
1:00 PM 59.0 °F 55.4 °F 88% 29.98 in 5.6 mi South 16.1 mph - N/A Rain Light Rain Showers
1:30 PM 60.8 °F 55.4 °F 82% 29.98 in 5.6 mi SSE 9.2 mph - N/A   Mostly Cloudy
2:00 PM 58 °F 55 °F 86% 29.99 in - South 6.9 mph - -  
2:00 PM 59.0 °F 55.4 °F 88% 29.98 in 1.6 mi South 6.9 mph - N/A Rain Rain Showers
2:18 PM 59.0 °F 55.4 °F 88% 29.98 in 5.6 mi SSW 10.4 mph - N/A   Mostly Cloudy
2:30 PM 59.0 °F 55.4 °F 88% 29.98 in 6.2 mi South 9.2 mph - N/A   Mostly Cloudy
3:00 PM 63 °F 54 °F 66% 29.98 in 19 mi SSW 8.1 mph - -   Mostly Cloudy
3:00 PM 62.6 °F 55.4 °F 77% 29.98 in 5.6 mi SSW 8.1 mph - N/A   Mostly Cloudy
3:30 PM 62.6 °F 53.6 °F 72% 29.98 in 6.2 mi SW 8.1 mph - N/A   Mostly Cloudy
4:00 PM 60.8 °F 51.8 °F 72% 29.98 in 6.2 mi South 10.4 mph - N/A Rain Light Rain Showers
4:30 PM 59.0 °F 53.6 °F 82% 29.98 in 6.2 mi South 11.5 mph - N/A Rain Light Rain Showers
5:00 PM 61 °F 52 °F 64% 29.99 in - South 10.4 mph - -  
5:00 PM 60.8 °F 51.8 °F 72% 29.98 in 6.2 mi South 10.4 mph - N/A   Mostly Cloudy
5:30 PM 60.8 °F 50.0 °F 68% 30.01 in 6.2 mi SE 10.4 mph - N/A   Scattered Clouds
6:00 PM 60 °F 49 °F 57% 30.01 in 16 mi South 9.2 mph - -   Partly Cloudy
6:00 PM 60.8 °F 48.2 °F 63% 30.01 in 6.2 mi South 9.2 mph - N/A   Partly Cloudy
6:30 PM 60.8 °F 48.2 °F 63% 30.01 in 6.2 mi SSE 6.9 mph - N/A   Mostly Cloudy
7:00 PM 59.0 °F 48.2 °F 67% 30.04 in 6.2 mi SE 8.1 mph - N/A   Mostly Cloudy
7:30 PM 59.0 °F 50.0 °F 72% 30.04 in 6.2 mi SE 9.2 mph - N/A   Light Drizzle
8:00 PM 59 °F 50 °F 63% 30.05 in - South 8.1 mph - -  
8:00 PM 59.0 °F 50.0 °F 72% 30.04 in 6.2 mi South 8.1 mph - N/A   Light Drizzle
8:30 PM 59.0 °F 50.0 °F 72% 30.06 in 6.2 mi South 8.1 mph - N/A   Mostly Cloudy
9:00 PM 57 °F 49 °F 68% 30.07 in 1 mi SSE 5.8 mph - -   Partly Cloudy
9:00 PM 57.2 °F 50.0 °F 77% 30.06 in 6.2 mi SSE 5.8 mph - N/A   Mostly Cloudy
9:30 PM 57.2 °F 50.0 °F 77% 30.06 in 6.2 mi SSE 2.3 mph - N/A   Scattered Clouds
10:00 PM 55.4 °F 50.0 °F 82% 30.06 in 6.2 mi Calm Calm - N/A   Mostly Cloudy
10:30 PM 53.6 °F 48.2 °F 82% 30.06 in 6.2 mi Calm Calm - N/A   Scattered Clouds
11:00 PM 53 °F 48 °F 78% 30.08 in - NNE 4.6 mph - -  
11:00 PM 53.6 °F 48.2 °F 82% 30.06 in - NNE 4.6 mph - N/A   Clear
11:30 PM 51.8 °F 48.2 °F 88% 30.06 in - ENE 4.6 mph - N/A   Clear